Location: West Cummington
(42.4920°N, 72.9680°W)
Time: 17:05:38
(UTC-04:00)

Daily predictions for brighter satellites

Satellite Brightness Start Highest point End
(mag) Time Altitude Azimuth Time Altitude Azimuth Time Altitude Azimuth
USA 186 2.9 20:51:35 10° SSW 20:54:09 35° W 20:56:36 10° NNW
COSMOS 2455 3.1 20:48:49 10° S 20:54:33 49° ESE 21:00:20 10° NE
Envisat 3.5 20:52:20 10° SE 20:57:08 45° ENE 21:01:58 10° N
H-2A R/B 3.8 20:53:28 10° S 20:57:18 49° W 21:01:11 10° NNW
CZ-4 SHROUD 4.3 20:56:22 10° SE 20:59:10 30° ENE 21:02:00 10° N
Cosmos 2058 Rocket 4.1 20:56:42 10° NNW 21:00:55 48° W 21:05:06 10° SSW
Cosmos 1602 Rocket 3.6 20:56:55 10° S 21:01:22 69° E 21:05:48 10° NNE
CZ-4 DEB 4.5 20:59:10 10° SSW 21:02:07 33° W 21:05:05 10° NNW
Tsikada Rocket 4.1 20:56:49 10° S 21:03:06 62° E 21:09:23 10° NNE
PSLV R/B 3.8 21:08:35 10° SE 21:11:28 40° ENE 21:14:25 10° N
Cosmos 1812 Rocket 3.6 21:07:17 10° N 21:11:41 65° E 21:16:03 10° SSE
ARGOS 4.3 21:14:07 11° ESE 21:18:36 30° ENE 21:23:15 10° N
deb Chang Zheng 4 3.9 21:17:24 10° N 21:21:48 71° WNW 21:26:07 10° SSW
H-2A R/B 2.6 21:20:40 10° S 21:24:52 57° W 21:29:12 10° NNW
Cosmos 2369 Rocket 2.5 21:21:55 10° NNW 21:27:31 56° ENE 21:32:08 15° SE
MetOp-B 4.3 21:24:58 12° SSE 21:29:54 61° ENE 21:35:12 10° N
Cosmos 1992 Rocket 4.0 21:25:30 10° NNW 21:30:45 75° ENE 21:35:14 14° SSE
UNK 4.4 21:26:08 10° NNE 21:31:33 58° ESE 21:37:12 10° S
USA 81 4.3 21:27:30 10° N 21:32:41 53° E 21:37:04 14° SSE
Cosmos 1626 Rocket 4.4 21:28:48 10° SSW 21:33:08 53° W 21:37:27 10° N
Meteor 2-12 Rocket 4.4 21:27:18 10° N 21:33:25 82° E 21:39:28 10° S
Cosmos 1634 Rocket 4.1 21:30:11 10° N 21:36:17 58° E 21:41:30 14° SSE
CZ-2C R/B 3.5 21:36:56 10° WSW 21:37:58 12° W 21:38:59 10° WNW
Lacrosse 4 Rocket 1.7 21:34:12 10° S 21:37:59 40° ESE 21:41:50 10° NE
USA 245 4.4 21:36:07 15° SSE 21:40:53 56° ENE 21:45:42 10° N
SeaSat 1 2.4 21:38:41 16° SSE 21:42:39 83° ENE 21:47:37 10° NNW
SL-08 RB Rocket 4.3 21:47:17 20° SE 21:50:02 41° ENE 21:54:17 10° N
Cosmos 1953 Rocket 3.7 21:49:26 16° S 21:52:48 58° E 21:57:11 10° NNE
CZ-4B R/B 3.5 21:49:57 10° NNE 21:55:04 76° ESE 22:00:17 10° S
Cosmos 1190 Rocket 4.0 21:49:54 10° SSW 21:55:10 75° ESE 22:00:30 10° NNE
YAOGAN 6 2.6 21:54:35 22° SSE 21:56:51 84° E 22:00:38 10° N
Cosmos 2279 Rocket 4.3 21:51:12 10° N 21:57:16 50° ENE 22:01:15 21° SE
Cosmos 2346 Rocket 4.4 21:51:34 10° S 21:57:45 82° E 22:03:53 10° N
H-2A R/B 3.1 21:55:22 19° ESE 21:58:05 31° ENE 22:02:30 10° N
Cosmos 2263 4.2 21:52:41 10° NNW 21:58:18 71° ENE 22:01:57 23° SE
Cosmos-2242 4.1 21:55:42 10° NNE 21:59:36 30° ENE 22:01:21 22° ESE
Atlas Centaur 2 3.6 21:55:35 10° WSW 22:02:10 34° S 22:06:34 21° SE
COSMOS 2406 4.2 22:03:46 23° SE 22:05:35 27° ESE 22:10:18 10° NE
SPOT 1/Viking Rocket 3.5 22:03:18 20° SSE 22:06:56 87° WSW 22:12:07 10° NNW
CZ-4C R/B 3.7 22:05:22 28° SE 22:07:18 52° ENE 22:11:13 10° N
BREEZE-M DEB (TANK) 2.8 22:04:20 10° WSW 22:07:31 49° NNW 22:09:30 10° NE
ATLAS 3B R/B 2.9 21:59:49 10° SSW 22:07:32 82° ESE 22:15:06 10° NE
ISS -1.6 22:05:23 10° W 22:08:27 36° NNW 22:11:31 10° NE
Cosmos 1066 Rocket 4.3 22:03:00 10° SSW 22:08:43 82° W 22:14:35 10° N
Cosmos 1140 Rocket 4.4 22:07:59 25° SE 22:09:32 29° E 22:14:02 10° NE
Cosmos 676 Rocket 4.0 22:07:50 15° S 22:12:15 63° ESE 22:17:32 10° NNE
Meteor 1-22 Rocket 4.3 22:07:41 10° N 22:13:19 86° W 22:17:17 21° S
SAR-Lupe-2 4.4 22:14:42 30° ESE 22:15:36 36° ENE 22:18:55 10° N
CZ-4 R/B 3.9 22:12:16 10° NNE 22:17:18 85° ESE 22:21:17 17° SSW
Landsat 7 4.0 22:15:11 29° SE 22:17:27 59° ENE 22:22:08 10° N
PSLV R/B 3.3 22:17:55 10° W 22:21:27 69° S 22:22:23 45° ESE
Cosmos 1953 2.9 22:19:13 10° N 22:23:01 41° ENE 22:23:57 35° ESE
USA 234 3.2 22:19:10 24° SE 22:23:25 87° SW 22:30:02 10° NW
Cosmos 1943 Rocket 2.3 22:19:17 10° NNW 22:24:48 64° ENE 22:27:31 30° SE
Cosmos 1758 Rocket 3.7 22:23:40 20° SSW 22:26:36 74° W 22:30:59 10° N
BREEZE M DEB (TANK) 2.6 22:24:45 10° W 22:25:59 27° WSW 22:25:59 27° WSW
SPOT 5 4.4 22:23:05 10° SSW 22:26:44 25° W 22:30:21 10° NW
Spot 4 4.5 22:24:58 29° ESE 22:26:47 41° ENE 22:31:17 10° N
Cosmos 1943 4.0 22:23:16 10° SW 22:28:47 53° WNW 22:34:22 10° NNE
CARTOSAT-1 3.8 22:28:09 37° SE 22:29:35 55° ENE 22:33:49 10° N
DMSP B5D2-2 4.5 22:24:53 10° NNE 22:29:57 45° E 22:31:44 33° SE
Terra 2.0 22:31:28 35° SE 22:33:16 59° ENE 22:37:57 10° N
Cosmos 1346 Rocket 4.0 22:34:25 13° SW 22:37:32 39° WNW 22:41:16 10° N
DELTA 2 DEB (DPAF) 4.3 22:38:40 34° S 22:40:33 67° WSW 22:45:03 10° NNW
Cosmos 407 Rocket 4.1 22:35:57 10° SW 22:41:06 55° WNW 22:46:14 10° NNE
Cosmos 1842 3.3 22:44:54 40° SSW 22:46:11 74° W 22:50:07 10° N
SL-27 R/B 2.2 22:46:07 76° SSW 22:46:20 89° W 22:49:43 10° NNE
COSMOS 2487 4.3 22:49:12 20° ENE 22:49:12 20° ENE 22:50:57 10° NE
USA 238 DEB 3.7 22:43:03 11° SSW 22:49:54 69° ESE 22:56:55 10° NE
USA 238 3.7 22:43:19 12° SSW 22:49:59 68° ESE 22:57:00 10° NE
Cosmos 1842 Rocket 3.6 22:52:29 10° N 22:56:51 63° E 22:57:35 53° SE
ARGOS 4.2 22:55:38 21° SSW 22:58:41 38° W 23:03:45 10° NNW
Cosmos 1954 Rocket 4.4 22:57:35 18° SW 23:01:34 63° WNW 23:06:50 10° NNE
Cosmos 1733 4.4 23:00:51 10° NNE 23:04:12 30° ENE 23:04:12 30° ENE
Cosmos 1092 Rocket 4.1 23:02:29 39° SSE 23:04:46 62° E 23:10:57 10° NNE
IGS 5A 3.6 23:05:31 55° SSW 23:06:14 68° WSW 23:10:24 10° NNW
Cosmos 2208 Rocket 3.9 23:01:30 10° NNW 23:06:43 87° ENE 23:08:05 51° SSE
Cosmos 1758 3.8 23:06:11 10° NNW 23:10:14 55° W 23:10:56 48° SW
CZ-4B R/B 4.1 23:10:38 12° ENE 23:10:52 12° ENE 23:12:17 10° NE
Cosmos 2369 Rocket 4.0 23:06:56 10° NW 23:11:03 21° W 23:13:56 14° SW
Meteor 2-5 Rocket 4.1 23:11:50 43° SE 23:13:11 52° E 23:18:45 10° NNE
Nadezhda 4 Rocket 4.0 23:11:18 34° SSW 23:14:17 84° W 23:20:40 10° N
Cosmos 2084 3.6 23:11:24 10° NW 23:15:28 54° WSW 23:15:41 54° SW
Lacrosse 4 Rocket 3.9 23:13:49 10° W 23:16:52 20° NW 23:19:59 10° N
SL-8 R/B 3.7 23:14:13 10° WNW 23:19:04 80° NNE 23:20:18 50° ESE
Cosmos 1741 Rocket 4.0 23:21:13 42° SSW 23:23:05 83° WNW 23:28:26 10° NNE
H-2A R/B 4.4 23:20:42 10° NE 23:22:12 16° ENE 23:22:12 16° ENE
NOSS 3-2 (C) 4.0 23:24:06 38° ESE 23:24:21 38° ESE 23:30:21 10° NE
Cosmos 1340 2.9 23:34:32 68° NNE 23:34:32 68° NNE 23:37:53 10° N
Cosmos 2221 2.9 23:30:14 10° N 23:34:25 52° ENE 23:34:25 52° ENE
Meteor 1-16 Rocket 4.4 23:30:46 10° N 23:36:22 61° ENE 23:37:35 49° SE
Cosmos 1470 2.8 23:32:57 10° N 23:36:33 72° NW 23:36:33 72° NW
Cosmos 1655 Rocket 4.2 23:35:25 47° SE 23:36:54 59° E 23:43:01 10° NNE
H-2A R/B 3.2 23:36:00 27° SW 23:37:26 32° W 23:41:57 10° NNW
Cosmos 1850 Rocket 4.5 23:37:40 32° SW 23:39:53 57° WNW 23:45:02 10° NNE
Cosmos 2278 4.4 23:39:15 10° NNW 23:44:41 45° ENE 23:46:20 36° ESE
ISS -0.2 23:43:21 10° NW 23:45:34 17° N 23:47:48 10° NE
CZ-4C R/B 2.1 23:45:27 58° SE 23:45:44 59° ESE 23:51:34 10° NE
Cosmos 1544 4.1 23:42:41 10° NNW 23:45:56 40° WNW 23:45:56 40° WNW
Cosmos 405 Rocket 4.3 23:50:36 26° ENE 23:50:36 26° ENE 23:52:51 10° NNE
COSMOS 2406 4.1 23:45:47 19° SW 23:49:37 46° WNW 23:55:09 10° NNE
Cosmos 1607 4.3 23:45:43 21° SW 23:50:03 64° NW 23:56:15 10° NNE
Atlas Centaur 2 4.1 23:44:36 10° WSW 23:49:13 25° SW 23:49:13 25° SW
Cosmos 2026 Rocket 3.8 23:52:27 56° S 23:53:50 82° E 23:59:55 10° N
